Wetbulb
70.35 72.22 73.46 74.29 74.59 75.44 75.99 76.78 76.65 77.73 77.12 75.93 75.32 75.27 75.32 76.46 77.21 77.74 78.41 78.98 78.54 78.66 79.15 77.58 77.18 77.59 76.76 77.84 77.89 75.92 73.30 71.65 72.64 69.65 67.65 68.45 70.40 71.62 71.17 70.45 69.68 70.17 71.31
69.23 70.62 72.61 73.94 74.27 74.70 75.99 76.53 76.94 77.63 77.59 76.65 76.37 76.26 76.17 76.14 76.49 77.02 78.35 79.00 78.59 78.40 78.53 78.86 78.01 78.32 77.38 77.77 77.05 75.30 70.87 68.78 70.96 67.90 66.66 63.42 66.50 69.93 69.19 70.85 70.55 71.81 71.66
68.51 70.04 71.39 72.93 74.07 74.45 75.62 76.43 77.21 77.43 77.97 78.07 77.39 77.33 77.81 77.58 76.45 76.72 76.85 77.56 78.50 78.73 79.23 79.61 79.17 79.18 78.59 75.36 75.21 73.07 71.73 67.62 68.49 70.38 67.83 64.32 62.56 65.84 69.58 68.88 70.05 70.41 70.05
69.20 70.90 71.80 72.83 73.62 74.53 76.06 76.97 77.74 77.92 78.10 78.78 78.73 78.26 75.17 74.16 75.61 76.73 76.68 77.14 78.57 78.47 79.31 79.97 79.45 78.96 75.87 74.53 73.82 72.10 71.15 70.57 66.95 69.48 71.10 70.08 68.93 64.28 63.47 67.13 67.38 68.72 68.24
68.97 69.87 71.43 72.98 74.18 74.94 75.38 76.62 77.83 78.66 79.36 78.82 79.10 77.44 76.72 75.91 76.89 77.02 77.87 78.73 78.82 79.02 78.30 78.39 77.33 75.94 74.98 74.85 73.04 71.75 71.25 69.86 69.70 68.31 68.20 68.76 67.73 67.87 64.64 61.60 63.17 65.28 65.71
69.69 70.15 71.81 73.17 73.71 74.83 75.20 75.91 77.87 79.55 79.43 79.05 78.46 78.62 78.57 77.72 76.39 76.84 76.22 76.40 76.65 77.06 77.54 76.73 76.36 75.88 73.92 72.36 71.37 71.55 71.46 71.51 70.99 70.12 69.02 66.55 64.62 63.64 63.05 61.67 62.00 61.53 62.86
70.68 70.47 70.65 71.49 72.86 73.73 74.41 75.07 76.99 77.79 78.39 78.20 78.30 78.26 78.23 78.79 77.98 77.88 77.00 77.38 75.13 74.63 76.91 75.91 73.94 72.90 72.56 72.41 72.01 71.76 71.94 71.54 70.09 70.17 67.23 66.43 65.21 65.06 63.91 62.04 60.42 59.83 62.12
70.48 71.10 71.43 71.67 72.25 73.22 74.51 75.31 76.06 77.97 78.07 78.12 79.24 80.00 79.77 77.71 77.62 78.45 77.22 77.03 76.47 75.94 74.87 72.93 71.96 71.80 72.03 71.85 72.01 71.09 70.50 71.40 69.95 68.74 68.17 66.11 64.38 63.40 62.48 61.14 60.22 59.20 60.35
69.57 70.47 71.82 72.42 72.74 73.13 74.04 74.96 76.84 78.21 78.49 78.12 79.65 79.89 79.72 79.19 78.03 79.73 78.65 77.83 77.89 75.08 73.13 71.44 71.99 72.77 72.13 71.49 71.51 70.25 71.00 70.73 68.89 67.30 66.90 64.66 63.29 63.24 63.39 63.60 63.67 61.41 58.03
68.44 69.96 71.31 72.98 73.24 73.88 74.26 75.18 76.07 77.40 78.15 77.96 79.02 78.59 78.86 78.86 79.04 79.15 78.47 78.58 77.46 75.79 71.40 71.42 71.75 71.55 71.43 71.26 72.10 70.93 70.95 68.55 66.31 65.58 65.86 65.00 63.60 63.62 63.76 63.65 64.18 64.08 62.08
67.32 69.00 70.34 72.07 72.95 73.60 74.29 74.69 75.58 76.25 77.20 77.77 78.32 78.30 78.16 78.56 78.90 78.22 78.50 78.51 76.82 74.32 72.65 72.06 72.13 71.81 71.32 71.01 71.40 71.05 68.67 67.45 66.73 66.40 64.98 64.55 65.18 62.70 63.14 64.90 64.87 64.00 62.98
67.43 69.11 69.91 70.85 72.19 72.70 73.65 74.28 75.67 76.47 77.11 77.80 78.80 79.35 78.64 78.99 78.54 78.79 78.84 77.82 76.57 73.80 73.16 72.62 72.21 72.16 70.55 71.20 71.13 69.50 67.16 66.77 65.82 65.68 65.00 64.12 63.01 63.48 64.83 64.74 65.43 64.35 64.83
69.37 69.41 70.20 70.90 71.99 72.73 73.33 74.42 75.31 75.61 76.84 77.58 77.75 78.26 79.19 79.01 79.43 78.62 78.33 76.89 73.52 74.22 73.48 72.87 71.92 71.15 70.91 71.05 70.91 68.90 67.26 67.14 66.23 65.50 64.68 63.89 63.35 62.51 63.94 64.90 63.50 63.19 63.60
70.40 70.48 71.22 72.72 72.85 73.94 74.00 74.26 74.73 76.05 76.60 76.95 77.24 77.43 77.83 78.12 77.92 78.58 77.61 76.04 75.84 74.75 73.57 72.52 71.67 71.16 70.93 70.85 70.10 67.80 67.47 67.37 66.09 65.93 65.16 64.17 62.75 62.87 64.25 63.18 63.06 63.03 61.97
70.39 71.22 71.81 72.79 73.35 73.67 74.48 74.79 75.46 76.14 76.66 76.91 76.98 77.25 78.13 78.51 77.63 77.53 76.62 76.14 75.90 73.58 72.90 72.19 71.13 70.82 70.62 69.52 69.07 67.52 67.41 66.82 65.89 65.93 65.43 63.69 62.85 63.15 62.58 61.27 61.36 61.72 59.83
69.98 71.47 72.37 73.38 73.69 74.03 74.47 74.94 75.47 76.14 77.03 76.93 77.15 78.07 78.46 76.85 76.42 75.32 75.20 75.29 73.32 72.96 72.50 71.34 70.33 70.17 69.02 61.82 62.52 64.95 66.62 66.49 65.82 65.11 64.15 62.77 62.60 63.12 61.59 61.15 60.11 59.81 59.10
69.29 71.60 72.39 73.45 74.54 74.87 75.37 74.95 75.84 77.27 77.36 77.56 77.97 77.66 75.93 74.09 73.31 73.28 73.53 72.76 72.50 73.24 71.90 70.26 70.05 69.48 69.62 60.53 60.50 62.23 65.98 66.09 65.90 64.86 62.24 61.13 61.49 63.23 62.97 58.91 58.83 60.85 60.32
68.06 71.59 72.68 73.32 74.45 75.28 75.72 76.42 77.13 77.60 77.45 77.50 77.00 74.17 73.28 72.67 72.78 72.27 72.91 73.59 73.09 71.46 69.99 69.87 69.96 69.61 69.29 59.50 58.72 60.84 65.27 66.06 65.37 62.88 61.75 61.66 62.69 62.04 56.48 56.98 60.03 62.09 61.81
69.67 72.65 73.25 73.89 74.66 75.47 76.65 76.90 76.41 76.63 76.55 76.20 75.53 73.72 73.42 72.95 72.01 71.87 72.70 72.09 70.86 70.07 69.61 69.53 69.73 69.57 68.94 57.69 56.95 59.82 65.62 65.19 62.84 61.93 61.82 62.11 62.19 54.92 52.26 56.06 59.27 60.00 60.42
72.25 72.82 73.34 74.16 74.89 76.07 76.46 75.76 75.61 75.41 75.30 75.49 75.36 74.64 74.33 73.25 72.11 73.16 71.96 71.40 70.52 69.71 68.73 69.01 69.77 65.85 68.15 55.30 54.41 58.25 63.90 62.38 60.60 61.68 61.79 55.29 55.16 50.61 49.51 54.57 57.78 56.70 56.08
72.32 73.31 73.38 73.51 74.41 75.39 75.56 74.35 74.16 73.45 74.60 75.15 75.25 74.99 75.13 74.24 73.96 71.64 70.89 70.09 69.64 69.57 69.13 68.84 68.76 68.44 67.45 62.01 51.88 51.87 59.83 59.71 57.74 58.45 58.29 59.24 50.08 48.28 47.44 47.76 55.59 53.22 52.86
72.21 73.15 72.51 72.72 73.69 74.03 73.04 72.48 72.35 74.00 74.38 74.58 74.50 74.54 74.77 73.50 71.77 71.02 70.86 70.29 69.92 69.04 68.70 68.16 67.38 67.62 67.19 56.75 50.36 50.10 50.60 52.92 57.75 58.02 57.80 57.36 47.13 45.98 46.44 50.41 47.99 48.65 52.65
70.70 71.04 70.97 71.62 72.85 73.59 73.22 71.71 72.53 73.79 73.40 73.58 73.37 72.04 72.06 72.49 72.12 71.04 69.60 68.83 69.20 67.47 67.18 66.56 66.10 65.71 66.37 59.36 49.41 48.99 49.81 51.77 55.28 56.65 51.49 49.50 47.20 46.33 50.52 49.84 49.71 51.86 55.41
67.32 67.36 66.68 66.29 67.34 69.73 72.08 73.03 72.86 72.60 72.00 70.40 71.03 71.20 71.15 70.68 70.70 70.47 69.92 68.70 67.68 66.46 66.16 66.14 65.23 66.09 64.81 61.40 60.31 59.32 58.20 53.71 55.10 55.10 55.76 51.57 49.49 48.81 50.41 53.66 54.19 54.43 54.31
64.11 64.43 64.14 64.40 65.41 67.09 67.82 69.82 71.84 72.65 70.83 70.87 70.72 70.73 70.32 70.28 69.16 66.19 63.72 69.06 65.48 63.51 66.54 65.84 66.13 64.15 62.41 58.11 49.91 53.06 56.84 55.17 51.32 51.75 54.66 51.91 51.01 50.64 50.63 52.08 53.03 53.31 53.44
63.16 63.50 64.12 64.26 64.90 66.03 66.73 68.24 69.61 70.77 70.84 68.70 67.29 66.77 67.28 67.01 67.17 64.10 58.58 47.92 48.77 47.31 46.62 47.33 54.71 57.40 48.42 43.46 42.82 42.69 42.94 43.24 44.44 52.94 50.76 49.73 49.43 48.63 48.88 49.13 50.17 51.12 51.11
MSLP
1010.27 1011.09 1011.97 1012.70 1013.32 1014.00 1014.66 1015.26 1015.76 1016.19 1016.64 1016.89 1016.92 1016.97 1016.81 1016.90 1016.89 1016.90 1017.24 1017.52 1017.47 1017.59 1017.70 1017.30 1017.18 1017.44 1017.37 1017.63 1017.60 1017.40 1017.18 1016.97 1016.84 1016.62 1015.70 1015.13 1014.90 1014.85 1014.62 1014.26 1013.98 1014.01 1013.86
1009.36 1010.20 1011.07 1011.93 1012.63 1013.26 1013.98 1014.70 1015.26 1015.84 1016.34 1016.44 1016.61 1016.49 1016.48 1016.38 1016.31 1016.34 1016.70 1017.21 1017.39 1017.52 1017.51 1017.60 1017.30 1017.24 1017.32 1017.30 1017.68 1017.68 1017.29 1016.74 1016.78 1016.94 1016.19 1015.00 1014.37 1014.44 1014.50 1014.57 1014.38 1014.05 1014.22
1008.33 1009.26 1010.23 1011.02 1011.78 1012.45 1013.19 1013.86 1014.55 1015.12 1015.67 1015.95 1016.25 1016.53 1016.73 1016.68 1016.45 1016.41 1016.54 1016.54 1017.00 1017.18 1017.25 1017.32 1017.40 1017.34 1017.58 1017.09 1017.61 1017.53 1017.65 1017.12 1017.01 1017.27 1016.85 1015.66 1015.06 1015.22 1014.20 1014.26 1014.32 1014.40 1014.19
1007.44 1008.25 1009.18 1010.04 1010.74 1011.48 1012.24 1013.04 1013.79 1014.42 1014.98 1015.46 1015.52 1015.82 1015.71 1015.59 1015.50 1015.78 1015.77 1016.03 1016.40 1016.60 1016.74 1016.93 1017.06 1017.17 1017.30 1017.68 1017.55 1017.61 1017.88 1017.81 1017.05 1016.85 1016.80 1017.09 1016.88 1015.92 1014.66 1014.32 1014.24 1013.99 1013.77
1006.02 1006.96 1007.79 1008.80 1009.74 1010.53 1011.08 1011.84 1012.85 1013.55 1014.06 1014.62 1015.02 1015.16 1015.46 1015.09 1015.34 1015.42 1015.68 1016.15 1016.24 1016.58 1016.32 1016.71 1016.95 1017.28 1016.95 1017.19 1017.52 1017.74 1017.82 1017.55 1017.56 1016.88 1016.62 1016.54 1016.23 1015.94 1015.69 1014.47 1013.74 1013.61 1013.30
1004.75 1005.86 1006.97 1007.84 1008.58 1009.39 1010.02 1010.64 1011.60 1012.49 1013.17 1013.68 1014.18 1014.54 1014.60 1014.78 1014.64 1015.03 1015.28 1015.55 1015.71 1016.02 1016.49 1016.81 1017.16 1017.17 1017.39 1017.69 1017.43 1017.69 1017.74 1017.80 1017.76 1017.28 1016.86 1016.32 1016.16 1015.74 1015.48 1015.04 1014.40 1013.62 1012.94
1003.64 1004.63 1005.62 1006.57 1007.53 1008.17 1008.90 1009.61 1010.48 1011.46 1012.15 1012.68 1013.18 1013.72 1014.00 1014.36 1014.54 1014.82 1014.84 1015.08 1015.23 1015.93 1016.11 1015.88 1016.75 1017.69 1017.60 1017.53 1017.59 1017.69 1017.61 1017.58 1017.56 1017.52 1017.03 1016.63 1016.31 1016.08 1015.68 1015.29 1014.50 1013.74 1013.10
1002.06 1003.06 1003.90 1005.00 1006.01 1006.98 1007.89 1008.64 1009.28 1010.36 1011.12 1011.66 1012.18 1012.74 1013.16 1013.38 1013.75 1014.05 1014.01 1014.38 1015.01 1015.26 1015.50 1016.26 1016.13 1016.47 1017.25 1017.28 1017.46 1017.49 1017.46 1017.40 1017.23 1017.52 1017.40 1016.93 1016.43 1016.02 1015.68 1015.33 1014.68 1013.51 1012.67
1000.52 1001.40 1002.70 1003.76 1004.64 1005.60 1006.53 1007.38 1008.34 1009.18 1009.78 1010.53 1011.30 1011.64 1012.16 1012.58 1012.61 1013.14 1013.77 1013.98 1014.51 1014.97 1015.16 1015.79 1015.34 1015.73 1016.45 1016.82 1017.36 1017.50 1017.13 1017.12 1017.31 1017.19 1017.06 1016.96 1016.37 1015.94 1015.60 1015.11 1014.44 1013.66 1012.22
999.22 1000.17 1001.19 1002.28 1003.34 1004.39 1005.34 1006.48 1007.28 1008.00 1008.80 1009.57 1009.96 1010.59 1011.27 1011.88 1012.34 1012.68 1013.01 1013.42 1014.52 1014.55 1015.58 1015.80 1015.47 1015.62 1016.11 1016.57 1017.20 1016.81 1016.80 1017.28 1017.25 1017.00 1016.99 1017.05 1016.34 1015.98 1015.24 1014.70 1014.16 1013.57 1012.43
998.20 998.93 999.81 1001.08 1002.28 1003.13 1004.21 1005.11 1006.15 1006.99 1007.92 1008.48 1009.03 1009.84 1010.42 1010.94 1011.57 1011.94 1012.54 1012.74 1013.56 1014.26 1014.78 1015.40 1015.22 1015.52 1015.82 1016.29 1016.68 1016.85 1016.92 1017.02 1017.01 1016.87 1016.74 1016.68 1016.41 1015.67 1015.25 1014.55 1013.89 1013.10 1012.46
997.47 998.21 998.99 1000.01 1001.22 1002.04 1002.85 1003.90 1005.00 1005.95 1006.74 1007.67 1008.54 1009.02 1009.78 1010.27 1010.68 1010.92 1011.33 1012.37 1012.84 1013.34 1014.07 1014.74 1014.97 1015.44 1015.67 1016.00 1016.24 1016.47 1016.30 1016.74 1016.60 1016.69 1016.66 1016.36 1015.97 1015.79 1015.07 1014.16 1013.84 1013.30 1012.53
997.99 998.22 998.78 999.54 1000.54 1001.55 1002.32 1003.26 1004.34 1005.23 1006.24 1007.10 1007.84 1008.58 1009.09 1009.61 1010.00 1010.66 1011.31 1011.98 1012.65 1012.82 1013.49 1014.22 1014.86 1015.16 1015.51 1015.69 1016.11 1016.31 1016.41 1016.43 1016.39 1016.47 1016.34 1016.13 1015.89 1015.43 1014.86 1014.54 1013.93 1012.97 1012.31
998.14 998.47 999.01 999.70 1000.60 1001.51 1002.18 1002.93 1003.74 1004.68 1005.63 1006.50 1007.19 1007.82 1008.38 1008.96 1009.67 1010.22 1011.10 1011.72 1012.22 1012.58 1013.05 1013.70 1014.47 1014.94 1015.24 1015.42 1015.86 1015.95 1016.03 1016.12 1016.26 1016.28 1016.13 1015.83 1015.49 1015.16 1015.12 1014.64 1013.94 1013.03 1012.39
997.99 998.41 999.28 999.99 1000.74 1001.43 1002.08 1002.70 1003.35 1004.13 1005.05 1006.00 1006.70 1007.35 1007.98 1008.54 1009.30 1009.94 1010.80 1011.35 1011.84 1012.88 1013.22 1013.59 1014.20 1014.61 1014.69 1014.90 1015.36 1015.49 1015.76 1016.20 1016.18 1016.00 1015.71 1015.30 1015.37 1015.24 1015.21 1014.78 1014.00 1013.43 1012.42
997.30 997.99 998.87 999.76 1000.44 1001.02 1001.61 1002.38 1003.06 1003.95 1004.86 1005.68 1006.42 1007.07 1007.61 1008.54 1009.24 1010.00 1010.65 1011.25 1012.22 1012.50 1013.08 1013.40 1013.63 1014.04 1014.25 1014.61 1015.26 1015.64 1015.74 1015.82 1015.78 1015.52 1015.25 1015.14 1014.78 1014.33 1014.49 1014.23 1013.90 1013.57 1012.27
996.26 997.28 998.34 999.20 1000.06 1000.81 1001.47 1002.09 1003.15 1004.00 1004.71 1005.35 1006.13 1007.04 1008.14 1008.96 1009.64 1010.06 1010.61 1011.30 1011.68 1012.12 1012.59 1012.94 1013.31 1013.75 1014.16 1014.85 1015.32 1015.80 1015.62 1015.57 1015.42 1015.36 1015.17 1014.76 1014.24 1014.38 1014.19 1013.90 1013.27 1012.25 1011.54
996.03 996.92 998.08 999.08 999.97 1000.65 1001.40 1001.97 1003.02 1004.02 1004.84 1005.58 1006.26 1007.53 1008.34 1008.99 1009.47 1010.02 1010.42 1010.72 1011.28 1011.84 1012.29 1012.67 1013.10 1013.68 1014.02 1014.86 1015.41 1015.70 1015.70 1015.36 1015.09 1014.90 1014.80 1014.68 1014.39 1014.46 1014.85 1014.08 1012.92 1011.84 1011.06
996.08 996.79 998.03 998.95 999.77 1000.49 1001.32 1002.04 1003.06 1004.01 1004.73 1005.39 1006.40 1007.31 1008.05 1008.82 1009.67 1010.19 1010.71 1011.34 1011.73 1011.84 1012.14 1012.56 1012.94 1013.31 1013.84 1014.77 1015.44 1015.70 1014.95 1014.59 1014.98 1014.64 1014.55 1014.50 1014.52 1014.89 1014.98 1014.01 1012.95 1011.82 1010.72
996.70 997.53 998.33 998.99 999.94 1000.80 1001.56 1002.25 1003.38 1004.12 1004.53 1005.22 1006.26 1007.19 1007.74 1008.26 1008.84 1009.42 1010.27 1010.89 1011.75 1011.76 1011.68 1012.37 1012.91 1013.38 1013.78 1014.94 1015.52 1015.68 1014.49 1014.25 1014.52 1014.38 1013.86 1014.47 1014.85 1014.99 1014.80 1014.26 1013.20 1012.16 1011.27
997.76 998.15 999.13 999.54 1000.48 1001.17 1001.75 1002.58 1003.40 1003.81 1004.30 1004.94 1005.71 1006.45 1006.69 1007.06 1007.84 1008.05 1008.88 1010.69 1011.56 1011.67 1011.93 1012.34 1013.09 1013.47 1013.74 1014.90 1015.53 1015.38 1015.06 1014.51 1014.46 1013.91 1013.49 1013.65 1014.54 1014.83 1014.58 1014.24 1013.50 1012.93 1011.61
998.80 999.24 1000.02 1000.60 1001.14 1001.71 1002.16 1002.81 1003.46 1004.31 1004.66 1005.54 1006.19 1006.81 1007.48 1006.83 1008.53 1009.07 1008.16 1010.20 1011.23 1011.81 1011.92 1012.28 1012.82 1013.06 1014.18 1014.76 1015.43 1015.66 1015.60 1015.64 1015.04 1014.13 1013.89 1014.39 1014.77 1014.57 1014.21 1013.72 1013.32 1012.22 1011.14
999.74 1000.36 1000.96 1001.49 1001.95 1002.59 1002.94 1003.54 1004.40 1004.82 1005.58 1006.09 1006.77 1007.43 1007.95 1007.85 1008.99 1008.51 1009.23 1009.90 1010.88 1011.10 1011.51 1011.77 1012.14 1012.89 1013.58 1014.70 1015.13 1015.39 1015.52 1015.68 1015.11 1014.81 1014.97 1014.99 1014.57 1014.14 1013.38 1013.37 1012.82 1011.81 1011.02
1000.86 1001.48 1002.00 1002.64 1003.13 1003.50 1003.92 1004.06 1005.02 1005.53 1006.03 1006.78 1007.64 1008.54 1008.08 1008.66 1008.46 1007.96 1009.44 1009.12 1009.75 1010.39 1011.03 1011.50 1011.99 1012.68 1013.13 1013.66 1014.33 1014.58 1015.04 1015.12 1014.95 1014.75 1014.33 1014.42 1014.18 1013.81 1013.53 1012.88 1012.52 1012.15 1011.64
1001.34 1001.92 1002.46 1003.30 1004.00 1004.44 1004.86 1005.26 1005.60 1005.94 1006.52 1007.16 1007.67 1007.89 1007.93 1008.95 1009.66 1009.60 1010.06 1009.97 1010.31 1011.42 1011.48 1011.67 1011.72 1012.58 1013.10 1014.17 1014.70 1014.88 1014.98 1015.16 1015.40 1014.94 1013.96 1013.80 1013.50 1013.36 1013.30 1013.08 1012.76 1012.27 1011.79
1002.25 1002.63 1003.16 1003.85 1004.61 1005.34 1005.82 1006.26 1006.41 1006.56 1006.82 1007.35 1008.07 1008.65 1009.67 1008.34 1009.21 1010.53 1011.08 1011.44 1011.54 1012.18 1012.08 1012.23 1012.64 1013.23 1013.99 1015.07 1015.40 1015.85 1016.10 1016.02 1015.54 1014.71 1014.20 1014.01 1013.84 1013.84 1013.68 1013.58 1013.14 1012.75 1012.65
Wind_Speed
17 17 16 15 15 14 14 14 13 12 10 10 9 9 8 8 7 7 6 7 7 6 5 6 4 4 5 6 6 6 8 6 7 9 8 8 6 3 4 7 6 7 7
18 18 18 17 17 16 15 15 14 13 12 9 8 8 7 7 7 6 6 7 7 7 7 6 5 4 6 4 5 5 6 7 5 7 9 6 5 2 10 5 6 5 8
19 19 19 19 18 17 17 16 16 15 14 13 9 8 7 6 7 8 8 9 8 7 6 6 6 5 6 5 4 4 5 7 5 4 4 6 6 11 1 7 5 9 7
20 20 21 21 20 19 18 17 17 17 15 15 11 12 9 9 8 7 6 5 6 7 6 5 5 4 3 3 3 3 5 4 6 4 2 3 8 8 9 7 11 8 10
22 22 23 22 20 20 18 18 18 17 16 16 15 12 13 9 8 6 6 7 4 6 6 4 5 4 5 3 3 4 3 5 5 5 5 6 7 6 7 15 13 11 9
22 21 21 21 19 20 20 19 18 17 18 17 18 16 13 13 9 8 6 6 6 5 4 4 4 3 3 4 3 3 4 4 5 6 6 7 8 9 9 12 13 16 13
22 22 23 22 21 22 21 19 19 19 19 20 19 19 18 16 14 11 9 7 6 5 5 8 4 2 3 5 5 4 4 4 5 5 6 6 7 8 9 11 12 12 13
22 24 26 24 23 23 22 22 20 19 20 20 19 17 18 13 13 13 10 8 7 6 7 6 9 5 5 6 6 7 4 3 4 5 5 7 8 9 9 11 12 13 13
22 26 25 24 24 23 24 24 21 19 21 20 17 18 17 16 13 13 12 10 10 7 9 10 9 7 6 5 6 7 6 3 4 4 5 7 9 9 10 11 11 13 15
18 21 23 23 23 22 22 22 22 21 20 21 19 16 17 17 15 13 14 12 12 9 3 7 6 6 6 6 8 7 4 4 4 5 6 8 9 10 10 11 11 12 14
15 18 21 22 23 21 21 21 21 21 19 19 18 16 16 17 13 15 15 16 14 9 9 8 6 6 6 8 8 7 4 6 5 6 7 10 11 10 11 11 12 12 14
10 14 18 20 21 22 20 20 19 18 18 16 15 14 14 15 16 16 17 16 13 13 10 8 7 8 8 9 9 8 5 6 6 7 9 11 10 13 12 10 14 14 14
9 12 15 17 17 18 18 17 17 17 15 14 15 14 14 14 16 16 15 14 13 14 11 9 8 8 9 9 8 6 6 7 6 8 9 12 13 13 12 13 13 14 14
10 12 13 14 14 14 15 15 15 15 14 14 14 14 15 15 15 15 14 12 14 12 10 9 8 8 9 8 8 7 8 7 7 9 10 12 13 13 14 13 16 15 17
13 14 14 13 14 14 14 14 14 13 13 13 13 13 12 13 12 10 12 13 11 8 9 9 9 10 8 8 8 7 6 6 9 10 11 12 12 14 11 11 15 17 16
15 14 15 15 16 16 15 14 13 13 12 12 11 10 10 6 7 9 11 8 10 11 9 9 10 9 7 11 6 2 7 8 9 10 11 12 14 8 12 10 18 18 18
14 15 16 15 14 14 13 13 11 11 12 11 9 7 7 8 8 9 9 10 12 11 10 10 9 9 8 9 7 6 7 9 9 10 11 11 10 12 14 18 20 19 17
14 10 12 13 13 13 13 13 13 11 11 10 9 9 9 10 10 9 11 12 10 10 9 9 9 9 6 9 7 8 8 8 9 9 10 11 11 10 13 15 17 17 17
11 9 11 13 14 14 14 15 14 13 12 12 11 10 10 11 11 10 9 8 8 8 9 8 10 9 8 9 7 7 8 7 8 8 9 8 9 11 12 13 15 17 15
8 11 13 15 15 15 15 14 13 13 12 11 11 11 11 13 13 12 11 9 8 9 9 9 9 7 7 7 8 6 6 6 7 9 6 11 7 8 9 11 13 15 14
10 14 14 15 15 15 15 15 14 13 13 13 13 13 15 16 16 15 13 10 9 9 9 8 7 8 7 8 6 2 6 5 7 8 7 6 11 10 10 10 10 12 14
14 15 15 15 14 13 12 13 12 9 9 7 7 9 10 10 7 10 13 12 10 9 8 8 8 7 5 9 6 2 2 4 7 7 7 7 11 11 11 9 12 14 11
15 15 16 16 14 12 11 13 10 10 8 6 5 6 8 10 12 12 11 10 10 9 9 8 6 4 7 7 8 6 3 6 6 6 4 8 10 10 9 5 10 11 9
15 15 16 15 14 13 13 13 10 8 8 8 5 7 9 7 10 10 9 9 9 9 7 6 5 6 6 5 7 5 6 9 7 4 4 4 8 5 7 7 8 8 9
15 14 15 14 13 12 12 10 9 8 8 6 7 8 9 8 5 5 4 1 7 2 5 4 4 3 5 5 10 7 4 6 4 8 3 5 6 7 7 8 8 9 9
14 14 15 15 13 12 11 9 7 5 7 8 6 4 2 8 7 6 5 16 13 6 7 7 3 9 17 14 11 9 6 3 8 1 5 6 7 7 8 8 8 9 11
Wind_Direction
198 192 194 196 199 199 201 204 202 200 203 202 211 212 220 222 235 238 239 254 264 277 290 290 285 283 281 339 317 316 319 323 348 317 337 309 250 357 332 313 314 323 295
201 196 194 197 200 199 201 201 207 202 202 206 215 228 229 237 246 243 237 256 271 277 271 282 297 308 304 290 327 340 317 316 18 326 309 328 303 259 328 323 313 13 325
201 196 198 201 202 204 200 202 203 203 204 218 207 212 237 243 233 229 236 234 234 246 255 265 278 292 283 320 326 344 322 326 317 17 318 330 346 330 288 318 325 318 317
207 201 200 203 206 205 204 206 204 204 204 204 217 215 228 230 227 232 234 243 216 225 232 240 250 263 308 324 308 343 317 309 322 316 345 314 311 322 314 319 317 303 309
205 207 204 204 206 206 208 206 205 207 210 199 218 211 223 228 231 224 221 227 196 241 231 220 206 217 247 201 291 298 309 297 313 329 319 319 291 309 299 307 311 309 306
203 205 209 207 209 209 209 208 204 206 207 205 205 216 224 226 233 214 220 228 207 193 211 231 244 258 322 270 267 279 252 302 308 309 311 320 320 313 311 300 303 307 308
206 204 205 206 207 211 210 210 206 207 209 209 209 210 216 221 223 227 217 231 201 202 189 191 172 266 253 276 278 242 265 271 304 310 317 311 307 306 302 297 297 301 303
207 208 205 204 207 209 209 210 205 206 209 211 209 210 211 216 217 218 230 211 205 198 199 179 171 181 252 257 258 254 256 253 287 296 314 311 307 310 304 297 301 295 296
212 209 208 207 206 206 208 210 208 204 211 206 205 210 210 217 214 219 206 212 202 209 208 187 165 172 223 249 264 254 250 251 248 311 286 300 315 308 310 294 293 298 300
216 211 207 208 206 207 207 206 209 209 209 208 212 208 208 211 214 214 210 204 215 202 200 196 165 177 197 220 240 252 207 251 274 279 326 308 312 310 302 307 298 296 297
220 212 207 203 208 205 205 206 208 209 211 214 215 212 212 211 204 211 210 205 201 193 187 207 187 199 205 223 237 257 259 239 271 292 295 306 312 308 312 307 295 306 309
236 207 202 199 200 208 204 203 206 207 211 212 214 214 213 209 205 210 203 200 194 184 192 198 200 208 214 229 231 233 236 248 274 300 302 308 316 314 306 306 311 309 305
230 205 194 196 195 200 205 206 200 209 208 206 208 214 211 208 212 212 206 195 189 186 191 188 201 206 219 225 223 231 238 252 278 297 304 307 315 310 315 314 307 308 312
212 203 195 192 189 192 199 199 203 202 201 202 207 210 210 212 212 217 207 203 201 192 188 183 200 214 221 215 224 224 239 256 280 291 296 306 306 316 321 309 313 309 311
220 198 197 189 189 190 191 193 192 192 192 198 205 210 214 214 211 201 212 206 195 185 186 188 197 210 213 211 217 231 254 271 279 293 301 308 321 282 283 307 310 312 308
231 204 192 188 190 187 185 188 183 180 182 190 199 202 202 176 188 183 195 187 178 185 187 187 194 203 221 126 150 274 253 269 279 291 307 313 294 342 296 307 310 302 295
234 203 194 188 185 184 177 167 172 168 176 179 181 172 151 155 160 166 173 172 194 187 181 185 196 204 219 134 151 195 254 276 290 300 309 309 322 320 338 321 316 306 317
262 211 190 177 172 170 165 152 155 156 161 160 141 140 150 160 161 160 171 178 174 174 179 186 192 208 202 149 177 195 247 270 283 301 305 308 318 353 340 325 319 323 324
239 195 176 165 159 156 153 142 143 154 150 142 148 152 155 151 148 163 167 162 169 174 181 189 195 200 198 156 176 198 250 269 294 301 303 318 316 8 339 330 322 324 333
178 171 165 145 144 139 141 137 138 145 137 132 132 143 159 158 159 159 156 162 185 182 183 191 196 187 194 143 165 221 274 293 306 290 306 95 30 341 339 335 330 329 338
158 137 144 132 130 135 133 136 144 131 130 141 153 164 169 165 171 160 145 161 188 172 199 178 183 181 207 149 164 158 283 317 311 315 324 348 29 332 325 306 346 321 307
133 122 122 121 120 126 132 126 101 103 104 115 146 162 175 153 152 156 131 160 178 177 178 181 192 171 161 119 149 148 345 4 297 312 338 341 350 317 300 309 320 298 316
120 114 110 103 95 97 105 100 98 99 96 101 126 152 166 145 171 145 143 159 176 184 196 192 199 185 170 154 137 166 170 234 283 352 348 277 280 285 296 349 309 335 358
108 105 98 89 85 83 79 88 95 96 100 101 140 185 165 164 169 149 167 170 178 198 194 185 200 202 169 159 171 172 188 217 249 215 203 306 264 256 309 338 0 11 0
106 101 96 91 86 82 81 84 94 107 112 134 153 163 150 164 146 54 41 1 68 6 206 185 210 137 173 95 69 38 32 1 24 294 349 1 11 13 8 2 9 7 6
96 93 94 95 94 87 84 78 80 102 126 128 107 89 333 144 148 156 98 46 50 35 57 64 4 70 95 106 97 89 79 326 302 298 13 17 18 15 11 3 3 13 8